Hourly Data Report for October 05, 2017

All times are specified in Local Standard Time (LST). Add 1 hour to adjust for Daylight Saving Time where and when it is observed.

FORT PROVIDENCE
NORTHWEST TERRITORIES

61°19'01.000" N
117°36'07.000" W
161.50 m
2201799
71087
WID

Download Data

Hourly Data (October 2017)
Hourly Data Report for October 5, 2017
Temp Definition
°C
Dew Point Temp Definition
°C
Rel Hum Definition
%
Wind Dir Definition
10's deg

Wind Spd Definition
km/h
Visibility Definition
km
Stn Press Definition
kPa
Hmdx Definition


Wind Chill Definition


Weather Definition


TIME
00:00 3.4 2.2 92 8 7   99.51     LegendNANA
01:00 3.4 2.3 93 8 6   99.46     LegendNANA
02:00 3.1 2.2 94 9 6   99.37     LegendNANA
03:00 3.1 2.2 94 8 5   99.30     LegendNANA
04:00 3.7 2.8 94 10 5   99.20     LegendNANA
05:00 4.2 3.3 94 9 6   99.10     LegendNANA
06:00 3.8 2.8 93 11 7   99.01     LegendNANA
07:00 3.7 2.7 93 11 5   98.91     LegendNANA
08:00 3.8 2.8 93 11 5   98.82     LegendNANA
09:00 5.7 3.9 88 12 6   98.74     LegendNANA
10:00 7.7 3.9 77 12 9   98.59     LegendNANA
11:00 9.9 4.4 69 13 3   98.51     LegendNANA
12:00 9.5 4.6 72 20 8   98.40     LegendNANA
13:00 10.2 4.3 67 17 5   98.26     LegendNANA
14:00 10.7 4.8 67 20 4   98.22     LegendNANA
15:00 11.5 5.1 65 19 4   98.11     LegendNANA
16:00 13.1 5.5 60 19 4   98.06     LegendNANA
17:00 11.1 5.7 70 0 1   97.91     LegendNANA
18:00 9.1 4.9 75   0   97.86     LegendNANA
19:00 5.9 3.5 84 6 2   97.77     LegendNANA
20:00 4.2 2.2 87 16 4   97.68     LegendNANA
21:00 6.4 5.0 91 29 5   97.62     LegendNANA
22:00 5.1 3.3 88   0   97.54     LegendNANA
23:00 4.5 3.2 91   0   97.50     LegendNANA

Notes on Data Quality.

Legend

  • E = Estimated
  • M = Missing
  • NA = Not Available
  • ‡ = Partner data that is not subject to review by the National Climate Archives
Date modified: